ZAREMBO AK US current weather conditions

sailwx.info

Wind from 223 at 9 knots gusting 26

Air temperature -5.6° C
Dewpoint -16.7° C

Last reported at 2014-Nov-28 10:55 UTC.
Time now 2014-Nov-28 12:08 UTC

Location: N 56°18' W 132°51'.
View on Google Maps.

See reports from other nearby stations

  
Tides and Currents Weather Stations Pressure Air Temp Water Temp Dewpoint Dewpoint Depression Visibility Wind Speed Wind Dir Waves Ship Positions
date/time (UTC)wind fromknots sea level pressurealtimeterstation pressurevisibilityair tempwater tempwave heightnotes
2014-Nov-28 10:55 223 9 gusting 26 -5.6
2014-Nov-28 09:55 224 11 gusting 24 -5.6
2014-Nov-28 08:55 224 9 gusting 14 -5.0
2014-Nov-28 07:55 222 8 gusting 22 -5.0
2014-Nov-28 06:55 221 12 gusting 20 -4.4
2014-Nov-28 04:55 232 10 gusting 19 -4.4
2014-Nov-28 03:55 228 13 gusting 20 -3.9
2014-Nov-28 02:55 224 9 gusting 16 -3.9
2014-Nov-28 01:55 233 9 gusting 20 -2.8
2014-Nov-28 00:55 222 10 gusting 20 -2.2
2014-Nov-27 23:55 230 10 gusting 18 -1.1
2014-Nov-27 22:55 217 9 gusting 20 -0.6
2014-Nov-27 21:55 227 13 gusting 26 -0.0
2014-Nov-27 20:55 223 12 gusting 22 -0.0
2014-Nov-27 19:55 226 12 gusting 23 -0.6
2014-Nov-27 18:55 226 11 gusting 20 -0.6
2014-Nov-27 16:55 226 13 gusting 22 -0.6
2014-Nov-27 15:55 227 12 gusting 19 -0.6
2014-Nov-27 14:55 226 9 gusting 19 -0.6
2014-Nov-27 13:55 227 10 gusting 16 -0.6
2014-Nov-27 12:55 222 10 gusting 17 -0.6
2014-Nov-27 11:55 226 10 gusting 17 -0.6
2014-Nov-27 10:55 235 10 gusting 16 -0.6
2014-Nov-27 09:55 229 9 gusting 15 -0.0
2014-Nov-27 08:55 233 9 gusting 16 -0.6
2014-Nov-27 07:55 224 11 gusting 18 -0.0
2014-Nov-27 06:55 222 11 gusting 16 -0.0
2014-Nov-27 05:55 217 9 gusting 13 -0.0
2014-Nov-27 04:55 220 8 gusting 12 -0.0
2014-Nov-27 03:55 224 7 gusting 13 -0.0
2014-Nov-27 02:55 233 8 gusting 16 -0.0
2014-Nov-27 01:55 231 6 gusting 13 -0.0
2014-Nov-27 00:55 232 9 gusting 13 0.6
2014-Nov-26 23:55 233 8 gusting 13 1.7
2014-Nov-26 22:55 225 7 gusting 12 2.2
2014-Nov-26 21:55 228 7 gusting 13 2.2
2014-Nov-26 20:55 233 8 gusting 14 2.2
2014-Nov-26 19:55 238 9 1.1
2014-Nov-26 18:55 230 7 gusting 12 1.1